Darwin, CA

6:23 AM PST on February 12, 2016 (GMT -0800)
China Lake NAWS

Weather History for KNID - August, 2013

Change the Weather History Date:

Friday, August 9, 2013

  Actual Average Record
Temperature  
Mean Temperature 82 °F -  
Max Temperature 99 °F 100 °F 111 °F (1980)
Min Temperature 64 °F 71 °F 61 °F (2011)
Cooling Degree Days 16    
Growing Degree Days 32 (Base 50)    
Moisture  
Dew Point 32 °F    
Average Humidity 19    
Maximum Humidity 34    
Minimum Humidity 5    
Precipitation  
Precipitation 0.00 in - - ()
Sea Level Pressure  
Sea Level Pressure 29.82 in    
Wind  
Wind Speed 9 mph (South)    
Max Wind Speed 16 mph    
Max Gust Speed 26 mph    
Visibility 10 miles    
Events      
Averages and records for this station are not official NWS values.
T = Trace of Precipitation, MM = Missing Value Source: NWS Daily Summary

Daily Weather History Graph

Daily Weather History Graph

Search for Another Location

Airport or City:

Trip Planner

Search our weather history database for the weather conditions in past years. The results will help you decide how hot, cold, wet, or windy it might be!

Date:

Astronomy

Aug. 09, 2013 Rise Set
Actual Time 6:05 AM PDT 7:46 PM PDT
Civil Twilight 5:37 AM PDT 8:14 PM PDT
Nautical Twilight 5:04 AM PDT 8:47 PM PDT
Astronomical Twilight 4:29 AM PDT 9:22 PM PDT
Moon 8:48 AM PDT (8/9) 9:07 PM PDT (8/9)
Length of Visible Light 14h 36m
Length of Day
13h 41m
Waxing Crescent, 8% of the Moon is Illuminated
Aug 9
Waxing Crescent
Aug 14
First Quarter
Aug 20
Full
Aug 28
Last Quarter
Sep 5
New

Hourly Weather History & Observations

Time (PDT) Temp. Dew Point Humidity Pressure Visibility Wind Dir Wind Speed Gust Speed Precip Events Conditions
12:56 AM 77.0 °F 39.0 °F 25% 29.79 in 10.0 mi SSW 15.0 mph - N/A   Clear
1:56 AM 75.9 °F 39.0 °F 26% 29.79 in 10.0 mi South 16.1 mph 20.7 mph N/A   Clear
2:56 AM 69.1 °F 35.1 °F 29% 29.81 in 10.0 mi SSW 9.2 mph - N/A   Clear
3:56 AM 70.0 °F 36.0 °F 29% 29.80 in 10.0 mi South 10.4 mph - N/A   Clear
4:56 AM 68.0 °F 36.0 °F 31% 29.81 in 10.0 mi NNW 4.6 mph - N/A   Clear
5:56 AM 64.0 °F 35.1 °F 34% 29.83 in 10.0 mi West 4.6 mph - N/A   Clear
6:56 AM 66.9 °F 36.0 °F 32% 29.85 in 10.0 mi Calm Calm - N/A   Clear
7:56 AM 72.0 °F 37.9 °F 29% 29.86 in 10.0 mi Calm Calm - N/A   Clear
8:56 AM 75.9 °F 37.0 °F 24% 29.88 in 10.0 mi Calm Calm - N/A   Clear
9:56 AM 81.0 °F 37.0 °F 21% 29.87 in 10.0 mi South 4.6 mph - N/A   Clear
10:56 AM 84.9 °F 36.0 °F 17% 29.87 in 10.0 mi SSW 4.6 mph - N/A   Clear
11:56 AM 89.1 °F 32.0 °F 13% 29.86 in 10.0 mi Calm Calm - N/A   Clear
12:56 PM 91.9 °F 30.0 °F 11% 29.85 in 10.0 mi Calm Calm - N/A   Clear
1:56 PM 95.0 °F 18.0 °F 6% 29.83 in 10.0 mi Calm Calm - N/A   Clear
2:56 PM 98.1 °F 16.0 °F 5% 29.81 in 10.0 mi South 16.1 mph 20.7 mph N/A   Clear
3:56 PM 99.0 °F 23.0 °F 7% 29.79 in 10.0 mi SE 11.5 mph 19.6 mph N/A   Clear
4:56 PM 99.0 °F 14.0 °F 5% 29.78 in 10.0 mi SSE 13.8 mph 20.7 mph N/A   Clear
5:56 PM 97.0 °F 14.0 °F 5% 29.78 in 10.0 mi South 13.8 mph 26.5 mph N/A   Clear
6:56 PM 95.0 °F 18.0 °F 6% 29.78 in 10.0 mi South 15.0 mph - N/A   Clear
7:56 PM 89.1 °F 37.9 °F 16% 29.79 in 10.0 mi SSW 11.5 mph - N/A   Clear
8:56 PM 86.0 °F 37.9 °F 18% 29.81 in 10.0 mi SSW 11.5 mph - N/A   Clear
9:56 PM 82.0 °F 39.9 °F 22% 29.83 in 10.0 mi SSW 9.2 mph - N/A   Clear
10:56 PM 80.1 °F 41.0 °F 25% 29.83 in 10.0 mi South 10.4 mph - N/A   Clear
11:56 PM 78.1 °F 39.9 °F 25% 29.83 in 10.0 mi South 11.5 mph - N/A   Clear